Regional Weather Roundup
Issued by NWS

Home | Current Version | Previous Version | Graphics & Text | Print | Product List | Glossary Off
Versions: 1 2 3 4 5 6 7 8 9 10 11 12 13 14 15 16 17 18 19 20 21 22 23 24 25 26 27 28 29 30 31 32 33 34 35 36 37 38 39 40 41 42 43 44 45 46 47 48 49 50

294
ASUS43 KMKX 200511
RWRWI

WISCONSIN REGIONAL WEATHER ROUNDUP
NATIONAL WEATHER SERVICE MILWAUKEE/SULLIVAN WI
1200 AM CDT WED SEP 20 2017

NOTE: "FAIR" INDICATES FEW OR NO CLOUDS BELOW 12,000 FEET WITH NO
SIGNIFICANT WEATHER AND/OR OBSTRUCTIONS TO VISIBILITY.

WIZ001-002-006>008-014>016-023>028-200600-
NORTHWEST WISCONSIN

CITY           SKY/WX    TMP DP  RH WIND       PRES   REMARKS
SUPERIOR ARPT  PTCLDY    61  59  94 NE7       29.72F
ASHLAND        CLEAR     66  58  75 SE8G17    29.79R
HAYWARD        CLOUDY    66  57  72 SE13G23   29.78R
SIREN          CLOUDY    69  57  65 SE13G23   29.70F
CUMBERLAND     PTCLDY    63  54  72 SE13G18   29.75F
RICE LAKE      PTCLDY    66  58  75 SE15G21   29.77F
CHETEK         PTCLDY    65  60  82 SE13G21   29.77S
LADYSMITH      PTCLDY    65  58  78 SE13      29.83S
EAU CLAIRE     CLOUDY    67  57  70 SE13      29.76F
MENOMONIE      PTCLDY    68  61  77 SE10      29.75S
NEW RICHMOND   MOCLDY    68  60  75 SE12      29.70F
OSCEOLA        CLOUDY    70  62  75 SE14G23   29.72S
$$

WIZ003>005-009-010-017-018-200600-
NORTH CENTRAL WISCONSIN

CITY           SKY/WX    TMP DP  RH WIND       PRES   REMARKS
MANITOWISH WTR PTCLDY    59  56  91 SE9       29.89R
ARBOR VITAE    PTCLDY    59  54  83 SE9G20    29.89S
WOODRUFF       PTCLDY    59  54  83 SE9G20    29.89S
RHINELANDER    CLEAR     57  54  89 SE8       29.91F
EAGLE RIVER    CLEAR     56  51  81 SE3       29.91S
LAND O LAKES   CLOUDY    57  53  87 SE9       29.92F
PHILLIPS       PTCLDY    61  57  88 SE12G17   29.85S
TOMAHAWK         N/A     58  52  81 SE6       29.89F
MEDFORD        CLOUDY    60  57  90 SE10      29.86S
MERRILL          N/A     61  57  88 SE8       29.89
$$

WIZ029-030-035-036-043>047-200600-
CENTRAL WISCONSIN

CITY           SKY/WX    TMP DP  RH WIND       PRES   REMARKS
WAUSAU         MOCLDY    60  58  92 SE10      29.88F
MOSINEE        MOCLDY    59  59 100 SE9       29.90F FOG
MARSHFIELD     CLEAR     62  58  86 SE10      29.86F
STEVENS POINT  CLOUDY    60  60 100 SE9       29.90F FOG
WAUPACA        CLEAR     62  60  94 CALM      29.92S
WAUTOMA        CLOUDY    62  61  96 SE3       29.91S FOG
WISC RAPIDS    CLEAR     63  60  90 SE8       29.88F
CAMP DOUGLAS   CLOUDY    65  64  96 SE9       29.85F
$$

WIZ011>013-019>022-031-037>040-048>050-200600-
NORTHEAST WISCONSIN

CITY           SKY/WX    TMP DP  RH WIND       PRES   REMARKS
ANTIGO         CLOUDY    56  54  92 SE9       29.93S
SHAWANO        CLEAR     60  55  85 CALM      29.92S
OCONTO         CLEAR     53  53  99 CALM      29.92F
STURGEON BAY   CLEAR     62  60  93 E6        29.93F
GREEN BAY      CLEAR     58  57  97 E5        29.92F
MANITOWOC      CLEAR     56  55  97 CALM      29.94S
APPLETON       CLEAR     59  59 100 E5        29.91S
CLINTONVILLE   CLEAR     57  55  94 E3        29.91S
OSHKOSH        CLEAR     61  59  93 SE7       29.91F
$$

WIZ032>034-041-042-053>061-200600-
SOUTHWEST WISCONSIN

CITY           SKY/WX    TMP DP  RH WIND       PRES   REMARKS
LA CROSSE      CLEAR     72  64  76 SE15      29.78F
SPARTA         CLEAR     68  63  82 SE13G18   29.82F
VIROQUA        CLEAR     66  64  96 SE13G20   29.83F
BOSCOBEL       CLEAR     68  63  84 E7        29.84F
PRAIRIE DU CHI CLEAR     68  61  78 E6        29.81F
PLATTEVILLE    CLEAR     65  65 100 SE10      29.88S
$$

WIZ056-057-062-063-064-067-068-200600-
SOUTH CENTRAL WISCONSIN

CITY           SKY/WX    TMP DP  RH WIND       PRES   REMARKS
REEDSBURG      CLEAR     65  63  93 SE7       29.87F
BARABOO/DELLS  MOCLDY    65  60  84 SE8       29.89S
LONE ROCK      CLEAR     65  62  90 E8        29.87F
MINERAL POINT  CLEAR     66  64  94 SE13G18   29.88F
MADISON        CLEAR     65  62  90 SE9       29.90S
MIDDLETON      CLEAR     66  62  85 SE10      29.91R
WATERTOWN      CLEAR     61  61 100 SE5       29.91S FOG
MONROE         CLEAR     63  61  94 SE8       29.90F
JANESVILLE     CLEAR     63  63 100 SE5       29.91S FOG
$$

WIZ051-052-058>065-066-070>072-200600-
SOUTHEAST WISCONSIN

CITY           SKY/WX    TMP DP  RH WIND       PRES   REMARKS
MILWAUKEE      CLEAR     64  63  96 SE5       29.92F FOG
WAUKESHA       CLOUDY    61  59  94 E8        29.94S FOG
MILWAUKEE/TIMM PTCLDY    63  59  88 CALM      29.94S FOG
RACINE         CLEAR     62  62 100 E3        29.94F
BURLINGTON     CLOUDY    62  62 100 CALM      29.93S FOG
KENOSHA        FOG       60  59  96 E5        29.93F VSB 1/4
FOND DU LAC    CLEAR     61  57  87 SE9       29.91F
SHEBOYGAN      FOG       55  55 100 CALM      29.93S VSB 1/4
WEST BEND      FOG       55  55 100 CALM      29.94S VSB 1/2
JUNEAU         CLEAR     61  60  96 E5        29.92S FOG
$$

LSZ147-162-200600-
LAKE SUPERIOR

STATION/POSITION TIME  TEMP    WIND        PRES    WAVE
                       AIR SEA DIR/SP/G            HT/PER
                 (UTC) (F)     (DEG/KT/KT) (MB)    (FT/S)
W MID LAKE BUOY  0450   60 55  120/ 14/ 16 1010.1R   2/ 4
DEVILS ISLAND    0500   62     110/  8/ 10 1009.1S
PORT WING        0230   65     130/  4/  8 1008.1
SAXON HARBOR     0440   67     190/  7/ 16 1008.8R
$$

LMZ867-665-643>646-200600-
LAKE MICHIGAN

STATION/POSITION TIME  TEMP    WIND        PRES    WAVE
                       AIR SEA DIR/SP/G            HT/PER
                 (UTC) (F)     (DEG/KT/KT) (MB)    (FT/S)
S GREEN BAY BUOY 0500   64 66  120/  8/ 10 1013.0
N MID LAKE BUOY  0450   65 65  130/ 12/ 14 1014.2F   2/ 3
NORTHPORT PIER   0440   66     120/ 10/ 12 1013.2F
KEWAUNEE LAKESHO 0448   60      CALM  /  1 1012.8F
SHEBOYGAN LAKESH 0500   66     120/ 10/ 10 1013.2F
PORT WASHINGTON  0430   67     110/  7/ 11 1014.2F
ATWATER BUOY     0439   67 68  120/ 10/ 12 1013.5F
MILWAUKEE LAKESH 0450   67     100/  8/  9   N/A
S MID LAKE BUOY  0450   69 69   90/ 10/ 12 1013.4F   1
KENOSHA   LAKESH 0500   67     110/  6/  7 1013.2
$$

TC  - TEMPERATURE IN CELSIUS
VSB - VISIBILITY IN STATUTE MILES
WCI - WIND CHILL INDEX
HX  - HEAT INDEX





USA.gov is the U.S. government's official web portal to all federal, state and local government web resources and services.